Regional Weather Roundup
Issued by NWS

Home | Current Version | Previous Version | Graphics & Text | Print | Product List | Glossary Off
Versions: 1 2 3 4 5 6 7 8 9 10 11 12 13 14 15 16 17 18 19 20 21 22 23 24 25 26 27 28 29 30 31 32 33 34 35 36 37 38 39 40 41 42 43 44 45 46 47 48 49 50

000
ASUS43 KLSX 071307
RWRMO

WEATHER SUMMARY FOR MISSOURI
NATIONAL WEATHER SERVICE SPRINGFIELD MO
700 AM CST SUN FEB 07 2016

NOTE: "FAIR" INDICATES FEW OR NO CLOUDS BELOW 12,000 FEET WITH NO
       SIGNIFICANT WEATHER AND/OR OBSTRUCTIONS TO VISIBILITY.
       CURRENT SKY AND/OR WEATHER CONDITIONS ARE NOT AVAILABLE FOR
       CHILLICOTHE AND FARMINGTON.

MOZ001>031-035>038-043-044-053-054-071400-
...NORTHERN AND WESTERN MISSOURI...

CITY           SKY/WX    TMP DP  RH WIND       PRES   REMARKS
KANSAS CTY INT CLOUDY    37  27  67 W10       29.99S WCI  30
KANSAS C DTWN  MOCLDY    40  26  57 VRB7      29.99S
LEE`S SUMMIT   MOCLDY    39  26  59 W12       29.99R
ST JOSEPH      CLOUDY    35  27  72 W3        30.00R
CHILLICOTHE      N/A     39  27  62 VRB5      29.96S
KIRKSVILLE     PTCLDY    37  26  64 SW12      29.92S WCI  29

$$
MOZ066>068-077>081-088>096-101>105-071400-
...SOUTHWEST MISSOURI...

CITY           SKY/WX    TMP DP  RH WIND       PRES   REMARKS
SPRINGFIELD    CLEAR     30  25  81 S8        30.07F WCI  22
JOPLIN         CLEAR     41  29  62 SW16      30.11R

$$
MOZ032>034-039>042-045>050-055>058-069>072-071400-
...CENTRAL MISSOURI...

CITY           SKY/WX    TMP DP  RH WIND       PRES   REMARKS
COLUMBIA       PTCLDY    38  27  64 SW14      29.98F WCI  30
JEFFERSON CITY PTCLDY    38  27  64 S6        30.02F
ROLLA          CLEAR     35  27  72 SW15      30.02F WCI  25
SEDALIA        CLOUDY    41  26  55 SW17G24   30.00S
WHITEMAN AFB   CLOUDY    37  27  65 W16       29.98S WCI  28
WARRENSBURG    CLOUDY    37  28  70 SW14      30.00R WCI  29
OSAGE BEACH    CLEAR     39  27  60 S9        30.04F

$$
MOZ051-052-059>065-071400-
...EAST CENTRAL MISSOURI...

CITY           SKY/WX    TMP DP  RH WIND       PRES   REMARKS
ST LOUIS INTL  MOCLDY    41  24  51 SW16      30.02F
SPIRIT OF STL  PTCLDY    42  26  53 SW13      30.02F
ST CHARLES     CLOUDY    36  26  67 SW6       30.02F

$$
MOZ072>076-082>087-097>100-106>115-071400-
...SOUTH CENTRAL AND SOUTHEAST MISSOURI...

CITY           SKY/WX    TMP DP  RH WIND       PRES   REMARKS
CAPE GIRARDEAU CLEAR     35  24  64 SW9       30.13F WCI  28
FARMINGTON     CLEAR     33  19  56 SE6       30.08F WCI  28
POPLAR BLUFF   CLEAR     32  24  72 SW6       30.14F WCI  26
WEST PLAINS    CLEAR     34  18  52 SW8       30.11F WCI  27

$$


USA.gov is the U.S. government's official web portal to all federal, state and local government web resources and services.